www.pogodaiklimat.ru

Погода и климат >> Архив погоды >> Венгрия >> Сомбатхей


ПОГОДА в Сомбатхее

  • Прогноз погоды в Сомбатхее
  • Монитор погоды в Сомбатхее

АРХИВ ПОГОДЫ в Сомбатхее

Время (UTC), дата Ветер
(напр.,м/с)
 
Видим.   Явления Облачность Т
(С)
Тd
(С)
f
(%)
Тe
(С)
Тes
(С)
Комфортность P
(гПа)
Po
(гПа)
Тmin
(С)
Tmax
(С)
R
(мм)
R24
(мм)
S
(см)
19 17.06 СВ 2 н/о н/о +22.2 +15.8 67 +26 +26 душно 1017.6 994.1
20 17.06 н/о н/о +21.6 +16.1 71 1018.0 994.4
21 17.06 н/о н/о +20.9 +15.2 70 1017.9 994.3
22 17.06 С 2 н/о н/о +20.4 +14.5 69 +24 +24 комфорт 1017.9 994.2
23 17.06 С 1 н/о н/о +19.3 +14.1 72 +22 +22 комфорт 1018.1 994.4
00 18.06 С 2 н/о н/о +18.7 +13.8 73 +20 +20 1017.9 994.1
01 18.06 С 2 н/о н/о +18.7 +13.8 73 +20 +20 1017.2 993.4
02 18.06 С 3 н/о н/о +18.6 +13.5 72 +19 +19 1017.1 993.3
03 18.06 С 1 н/о н/о +17.7 +13.2 75 +19 +19 1017.7 993.8
04 18.06 СВ 1 н/о н/о +17.6 +13.5 77 +19 +19 1017.6 993.7
05 18.06 н/о н/о +19.8 +13.3 66 1017.4 993.7
06 18.06 СВ 2 н/о н/о +21.4 +14.6 65 +24 +24 комфорт 1017.9 994.3 +16.8
07 18.06 ЮВ 2 н/о н/о +22.4 +14.5 61 +26 +26 жарко 1018.0 994.5
08 18.06 ЮВ 1 н/о н/о +23.4 +14.9 59 +27 +27 душно 1017.7 994.3
09 18.06 В 2 н/о н/о +24.1 +14.8 56 +27 +27 жарко 1017.6 994.2
10 18.06 ЮВ 2 н/о н/о +25.2 +14.0 50 +28 +28 жарко 1017.1 993.8
11 18.06 Ю 2 н/о н/о +25.4 +16.0 56 +29 +29 душно 1016.6 993.4
12 18.06 ЮВ 2 40 км 8/5 1200 м
[Cu med, cong Cs]
+26.5 +16.1 53 +30 +30 душно 1016.1 993.0
13 18.06 Ю 2 н/о н/о +26.3 +15.7 52 +29 +29 жарко 1015.7 992.6
14 18.06 ЮВ 3 н/о н/о +26.3 +16.5 55 +30 +30 душно 1015.1 992.0
15 18.06 ЮВ 3 н/о н/о +26.6 +15.9 52 +30 +30 душно 1014.5 991.4
16 18.06 Ю 2 н/о н/о +25.9 +16.7 57 +30 +30 душно 1014.3 991.2
17 18.06 Ю 2 н/о н/о +26.5 +16.1 53 +30 +30 душно 1014.1 991.0
18 18.06 Ю 2 н/о н/о +25.2 +16.9 60 +29 +29 душно 1014.5 991.3 +27.2
19 18.06 Ю 1 н/о н/о +22.2 +16.7 71 +27 +27 душно 1014.8 991.4
20 18.06 штиль 0 н/о н/о +20.5 +16.7 79 +23 +23 комфорт 1015.4 991.8
21 18.06 ЮЗ 1 н/о н/о +19.1 +16.7 86 +22 +22 комфорт 1015.2 991.5
22 18.06 штиль 0 н/о н/о +18.1 +15.9 87 +18 +18 1015.2 991.4
23 18.06 штиль 0 н/о н/о +17.4 +15.9 91 +17 +17 1014.9 991.1
00 19.06 СЗ 1 н/о н/о +16.9 +15.9 94 +18 +18 1014.7 990.8
01 19.06 штиль 0 н/о н/о +17.6 +16.6 94 +18 +18 1014.5 990.7
02 19.06 штиль 0 н/о н/о +17.3 +16.2 93 +17 +17 1014.0 990.2
03 19.06 Ю 4 н/о н/о +18.3 +17.1 93 +19 +19 1014.3 990.6
04 19.06 СЗ 1 н/о н/о +18.5 +17.0 91 +20 +20 1013.9 990.2
05 19.06 З 1 н/о н/о +18.3 +17.1 93 +20 +20 1013.7 990.0
06 19.06 З 1 н/о н/о +19.9 +17.5 86 +24 +24 комфорт 1013.9 990.3 +16.6
07 19.06 ЮВ 2 н/о н/о +21.8 +18.2 80 +27 +27 душно 1013.8 990.4
08 19.06 ЮВ 3 н/о н/о +23.9 +18.5 72 +28 +28 душно 1013.5 990.2
09 19.06 ЮВ 3 н/о н/о +25.4 +17.8 63 +30 +30 душно 1013.1 989.9
10 19.06 ЮВ 4
{7}
н/о н/о +26.9 +17.7 57 +31 +31 душно 1012.5 989.5
11 19.06 Ю 2 н/о н/о +26.3 +17.4 58 +30 +30 душно 1011.9 988.8
12 19.06 ЮВ 3
{7}
40 км 5/5 900 м
[Cb cap Ci ing]
+28.3 +17.2 51 +32 +32 душно 1011.5 988.6
13 19.06 ЮВ 4
{7}
н/о н/о +28.0 +16.9 51 +32 +32 душно 1011.2 988.3
14 19.06 ЮВ 7
{14}
н/о н/о +25.9 +16.5 56 +29 +29 душно 1010.8 987.7
15 19.06 Ю 4
{8}
40 км в посл. час гроза 8/4 1080 м
[Cb calv Ac cuf Ci ing]
+24.5 +17.0 63 +28 +28 душно 1010.4 987.2
16 19.06 Ю 2 н/о н/о +26.2 +18.1 61 +31 +31 очень
душно
1009.6 986.6
17 19.06 В 2 н/о н/о +24.2 +17.9 68 +28 +28 душно 1010.9 987.7
18 19.06 Ю 2 н/о н/о +20.3 +15.9 76 +24 +24 комфорт 1010.9 987.4 +29.1 0.1
19 19.06 Ю 2 н/о н/о +18.9 +17.0 89 +21 +21 комфорт 1011.3 987.7
20 19.06 З 1 н/о н/о +18.7 +17.7 94 +21 +21 комфорт 1011.3 987.7
21 19.06 штиль 0 н/о н/о +18.6 +17.8 95 +20 +20 1011.8 988.1
22 19.06 ЮЗ 1 н/о н/о +18.2 +17.6 96 +20 +20 1012.2 988.5
23 19.06 З 1 н/о н/о +17.9 +17.4 97 +19 +19 1012.1 988.4
00 20.06 штиль 0 н/о н/о +17.7 +17.2 97 +18 +18 1011.6 987.9 0.5
01 20.06 В 1 н/о н/о +16.7 +16.2 97 +18 +18 1011.7 987.9
02 20.06 штиль 0 н/о н/о +16.2 +15.9 98 +16 +16 1011.5 987.7
03 20.06 ЮЗ 1 н/о н/о +15.1 +14.8 98 +16 +16 1011.4 987.5
04 20.06 штиль 0 н/о н/о +15.7 +15.5 99 +15 +15 1011.8 987.9
05 20.06 штиль 0 н/о н/о +17.4 +17.2 99 +17 +17 1012.1 988.3
06 20.06 СВ 2 4000 м дымка 9/9 240 м
[Sc]
+19.7 +18.5 93 +23 +23 комфорт 1012.4 988.8 +14.9 0.5
07 20.06 С 2 н/о н/о +20.6 +18.4 87 +25 +25 комфорт 1012.6 989.1
08 20.06 СВ 2 н/о н/о +23.2 +17.7 71 +29 +29 душно 1012.3 989.0
09 20.06 СВ 2 н/о н/о +24.8 +17.5 64 +29 +29 душно 1012.6 989.4
10 20.06 СВ 2 н/о н/о +26.2 +16.5 55 +30 +30 душно 1012.3 989.2
11 20.06 В 2
{7}
н/о н/о +27.5 +17.4 54 +32 +32 очень
душно
1012.1 989.1
12 20.06 В 2 н/о н/о +28.3 +15.6 46 +31 +31 душно 1011.4 988.5
13 20.06 СВ 2 н/о н/о +28.6 +15.2 44 +31 +31 жарко 1010.9 988.0
14 20.06 ЮВ 2 н/о н/о +29.2 +15.3 43 +32 +32 душно 1010.5 987.7
15 20.06 З 2 н/о н/о +24.9 +14.1 51 +27 +27 жарко 1010.6 987.5
16 20.06 В 1 н/о н/о +29.2 +15.0 42 +32 +32 душно 1010.2 987.4
17 20.06 штиль 0 н/о н/о +27.5 +16.2 50 +31 +31 душно 1011.2 988.3
18 20.06 штиль 0 н/о н/о +25.5 +17.7 62 +30 +30 душно 1011.4 988.3 +29.8
19 20.06 н/о н/о +23.0 +16.8 68 1011.9 988.6
20 20.06 С 1 н/о н/о +21.7 +17.1 75 +26 +26 душно 1012.3 988.9
21 20.06 С 1 н/о н/о +22.1 +17.0 73 +27 +27 душно 1013.3 989.9
22 20.06 С 3 н/о н/о +22.1 +16.4 70 +26 +26 душно 1013.7 990.3
23 20.06 СЗ 5
{9}
н/о н/о +21.7 +15.1 66 +25 +25 комфорт 1014.2 990.7
00 21.06 СЗ 5
{11}
н/о н/о +17.8 +15.1 84 +17 +17 1015.3 991.5 0.2
01 21.06
{9}
н/о н/о +17.1 +15.3 89 1015.2 991.3
02 21.06 штиль 0 н/о н/о +16.9 +15.6 92 +17 +17 1015.0 991.1
03 21.06 З 1 н/о н/о +16.8 +16.2 96 +18 +18 1015.9 992.0
04 21.06 С 1 н/о н/о +16.9 +15.8 93 +18 +18 1016.2 992.3
05 21.06 С 1 н/о н/о +17.1 +16.1 94 +18 +18 1016.5 992.6
06 21.06 СВ 2 н/о н/о +18.2 +16.0 87 +19 +19 1016.8 993.0 +16.7 8
07 21.06 С 2 н/о н/о +20.5 +16.3 77 +24 +24 комфорт 1017.1 993.5
08 21.06 С 1 н/о н/о +22.1 +16.4 70 +26 +26 душно 1016.9 993.4
09 21.06 С 3 н/о н/о +24.5 +14.6 54 +27 +27 жарко 1016.9 993.6
10 21.06 СВ 3 н/о н/о +25.2 +14.0 50 +28 +28 жарко 1016.8 993.5
11 21.06 С 2 н/о н/о +26.1 +14.9 50 +29 +29 жарко 1016.4 993.2
12 21.06 ЮВ 1 н/о н/о +27.1 +16.1 51 +30 +30 душно 1015.7 992.6
13 21.06 В 2 н/о н/о +27.5 +15.5 48 +30 +30 жарко 1015.3 992.3
14 21.06 В 1 н/о н/о +27.3 +14.0 44 +29 +29 жарко 1014.7 991.7
15 21.06 ЮВ 1 н/о н/о +27.6 +15.6 48 +31 +31 душно 1014.5 991.5
16 21.06 ЮВ 1 н/о н/о +26.8 +15.2 49 +30 +30 душно 1014.9 991.8
17 21.06 ЮВ 1 н/о н/о +26.3 +16.5 55 +30 +30 душно 1014.9 991.8
18 21.06 штиль 0 н/о н/о +25.0 +16.2 58 +28 +28 жарко 1015.3 992.1 +28.6
19 21.06 З 1 н/о н/о +22.0 +16.9 73 +26 +26 душно 1016.4 992.9
20 21.06 СЗ 1 н/о н/о +21.4 +16.6 74 +25 +25 комфорт 1016.6 993.1
21 21.06 З 2 н/о н/о +20.4 +16.6 79 +24 +24 комфорт 1017.2 993.6
22 21.06 СЗ 1 н/о н/о +20.2 +16.8 81 +24 +24 комфорт 1017.0 993.4
23 21.06 З 1 н/о н/о +19.7 +17.1 85 +23 +23 комфорт 1017.0 993.3
00 22.06 В 1 н/о н/о +19.0 +17.0 88 +22 +22 комфорт 1017.4 993.6
01 22.06 штиль 0 н/о н/о +18.9 +17.4 91 +20 +20 1017.6 993.8
02 22.06 штиль 0 н/о н/о +19.0 +18.2 95 +21 +21 комфорт 1017.4 993.6
03 22.06 В 1 н/о н/о +18.8 +17.3 91 +21 +21 комфорт 1017.6 993.8
04 22.06 З 2 н/о н/о +19.1 +17.2 89 +21 +21 комфорт 1018.0 994.2
05 22.06 З 1 н/о н/о +18.3 +17.1 93 +20 +20 1018.2 994.4
06 22.06 Ю 1 н/о н/о +18.2 +17.4 95 +20 +20 1018.9 995.0 +18.1 1
07 22.06 штиль 0 н/о н/о +19.5 +18.5 94 +22 +22 комфорт 1018.5 994.8
08 22.06 н/о н/о +21.7 +17.1 75 1018.2 994.6
09 22.06 С 3 н/о н/о +20.7 +17.3 81 +25 +25 комфорт 1018.9 995.2
10 22.06 СЗ 2 н/о н/о +21.3 +18.5 84 +26 +26 душно 1018.9 995.3
11 22.06 СВ 4
{7}
н/о н/о +22.8 +17.5 72 +28 +28 душно 1017.2 993.8
12 22.06 С 2 н/о н/о +23.8 +17.5 68 +28 +28 душно 1016.9 993.5 0.4
13 22.06 СВ 2 н/о н/о +24.3 +17.1 64 +28 +28 душно 1016.1 992.8
14 22.06 С 2 н/о н/о +23.9 +17.2 66 +28 +28 душно 1015.3 992.0
15 22.06 С 2 н/о н/о +21.9 +18.5 81 +27 +27 душно 1015.2 991.7
16 22.06 Ю 3
{13}
н/о н/о +17.2 +16.6 96 +17 +17 1015.7 991.8
17 22.06 В 3
{7}
н/о н/о +16.5 +16.2 98 +16 +16 1015.1 991.2
18 22.06 ЮЗ 2 н/о н/о +16.8 +16.5 98 +17 +17 1015.1 991.2 +24.6 23
19 22.06 В 2 н/о н/о +16.8 +16.5 98 +17 +17 1015.1 991.2
20 22.06 СВ 1 н/о н/о +16.4 +16.1 98 +17 +17 1015.3 991.4
21 22.06 СЗ 1 н/о н/о +15.9 +15.6 98 +17 +17 1015.6 991.6
22 22.06 СЗ 1 н/о н/о +15.6 +15.4 99 +16 +16 1015.8 991.8
23 22.06 штиль 0 н/о н/о +15.3 +15.1 99 +15 +15 1015.8 991.8
00 23.06 штиль 0 700 м туман 8/5 240 м
[Sc Ac As]
+15.9 +15.7 99 +16 +16 1016.0 992.0
01 23.06 СВ 1 н/о н/о +16.1 +15.9 99 +17 +17 1015.6 991.7
02 23.06 С 2 н/о н/о +16.3 +16.1 99 +16 +16 1015.2 991.3
03 23.06 С 1 н/о н/о +16.8 +16.6 99 +18 +18 1015.0 991.1
04 23.06 С 2 н/о н/о +17.0 +16.7 98 +17 +17 1015.1 991.2
05 23.06 СВ 2 н/о н/о +17.3 +16.8 97 +18 +18 1015.5 991.7
06 23.06 С 2 8000 м в посл. час дождь {туман} 10/8 180 м
[Sc Ac As]
+17.5 +17.0 97 +18 +18 1015.5 991.7 +15.1 1
07 23.06 СВ 2 н/о н/о +18.0 +17.5 97 +19 +19 1015.7 991.9
08 23.06 В 2 н/о н/о +18.4 +17.6 95 +20 +20 1016.1 992.3
09 23.06 СВ 2 5000 м дождь {морось} 10/5 180 м
[Frnb As op]
+18.1 +17.5 96 +19 +19 1016.2 992.4
10 23.06 СВ 2 н/о н/о +19.3 +17.6 90 +22 +22 комфорт 1016.4 992.7
11 23.06 СВ 3 н/о н/о +20.3 +17.7 85 +24 +24 комфорт 1016.3 992.7
12 23.06 С 2 12 км {дождь} 10/10 600 м
[Cu Sc]
+21.1 +17.1 78 +25 +25 комфорт 1016.3 992.7 1
13 23.06 С 2 н/о н/о +22.8 +17.0 70 +28 +28 душно 1015.7 992.3
14 23.06
{9}
н/о н/о +22.0 +17.4 75 1015.7 992.2
15 23.06 С 4
{8}
25 км в посл. час ливневой дождь 8/8 600 м
[Cb calv Ac lent Ci sp]
+21.7 +18.3 81 +26 +26 душно 1015.6 992.1
16 23.06 С 4
{9}
н/о н/о +22.0 +17.2 74 +26 +26 душно 1015.8 992.3
17 23.06 С 3
{12}
н/о н/о +18.5 +17.5 94 +19 +19 1016.5 992.7
18 23.06 С 2
{7}
15 км слаб. ливневой дождь 8/6 300 м
[Cb cap Ac cuf Ci ing]
+18.5 +17.7 95 +20 +20 1016.7 992.9 +23.6 6
19 23.06 С 2 н/о н/о +18.9 +18.1 95 +21 +21 комфорт 1016.8 993.1
20 23.06 С 1 н/о н/о +18.9 +18.1 95 +21 +21 комфорт 1017.8 994.0
21 23.06 н/о н/о +19.0 +18.0 94 1017.9 994.1
22 23.06 С 3
{7}
н/о н/о +18.9 +18.1 95 +21 +21 комфорт 1018.1 994.3
23 23.06 С 3 н/о н/о +18.9 +18.2 96 +21 +21 комфорт 1018.6 994.8
00 24.06 С 3
{7}
н/о н/о +18.7 +18.0 96 +20 +20 1018.9 995.1 5
01 24.06 С 3
{8}
н/о н/о +18.6 +17.1 91 +20 +20 1018.8 995.0
02 24.06 С 3
{7}
н/о н/о +18.4 +16.2 87 +19 +19 1018.9 995.1
03 24.06 С 3
{7}
н/о н/о +17.9 +15.5 86 +18 +18 1019.0 995.1
04 24.06 С 4
{9}
н/о н/о +18.1 +15.0 82 +18 +18 1019.4 995.5
05 24.06 С 4
{10}
н/о н/о +19.5 +15.0 75 +21 +21 комфорт 1019.4 995.6
06 24.06 С 5
{9}
н/о н/о +20.6 +14.5 68 +23 +23 комфорт 1019.6 995.9 +17.8 5
07 24.06 С 5
{9}
н/о н/о +22.2 +15.1 64 +26 +26 душно 1020.0 996.4
08 24.06 С 5
{9}
н/о н/о +23.0 +14.8 60 +27 +27 душно 1019.9 996.4
09 24.06 С 5
{9}
н/о н/о +24.5 +15.7 58 +28 +28 душно 1019.8 996.4
10 24.06 С 4
{9}
н/о н/о +25.3 +16.2 57 +29 +29 душно 1020.0 996.7
11 24.06 С 3
{9}
н/о н/о +26.3 +15.7 52 +29 +29 жарко 1019.8 996.6
12 24.06 С 4
{8}
н/о н/о +26.7 +15.4 50 +30 +30 душно 1019.8 996.6
13 24.06 СВ 4
{8}
н/о н/о +27.0 +16.0 51 +30 +30 душно 1020.0 996.8
14 24.06
{8}
н/о н/о +26.9 +15.9 51 1020.0 996.8
15 24.06 С 4
{8}
н/о н/о +27.4 +15.1 47 +30 +30 жарко 1019.9 996.7
16 24.06 С 3
{7}
н/о н/о +27.5 +15.8 49 +31 +31 душно 1019.6 996.5
17 24.06 С 3
{7}
н/о н/о +27.2 +16.2 51 +31 +31 душно 1019.8 996.6

 

Местоположение метеостанции Сомбатхей (Венгрия): широта 47.27 долгота 16.63 высота над уровнем моря 221 м.

В архиве по умолчанию представлена погода в Сомбатхее за последнюю неделю. Архивные данные за месяц целиком и за предыдущие месяцы, начиная с января 2011 года, Вы можете получить, выбрав интересующий диапазон дат из раскрывающегося списка и нажав кнопку "Ввод!".


*Определитесь, кто Вы:
робот инопланетянин человек

Внимание! Время в таблицах - всемирное. Для получения местного времени необходимо прибавить поправку, которая равна 1 ч.

Смотрите также архив погоды в соседних городах и на ближайших метеорологических станциях:

Погода в Луцмансбурге (Австрия) (22 км)
Погода в Кляйнциккене (Австрия) (24 км)
Погода в Бад-Тацмансдорфе (Австрия) (32 км)
Погода в Крумбахе (Австрия) (44 км)
Погода в Сентготтхарде (Венгрия) (45 км)
Погода в Шопроне (Венгрия) (46 км)
Погода в Залаэгерсеге (Венгрия) (46 км)
Погода в Хартберге (Австрия) (49 км)
Погода в Мёнихкирхене (Австрия) (53 км)
Погода в Андау (Австрия) (63 км)

Пояснения к столбцам:

Ветер - указаны скорость ветра в м/с - средняя за 10 мин, порывы в срок и между сроками (в фигурных скобках) и направление, откуда дует ветер: С - северный, СВ - северо-восточный, В - восточный, ЮВ - юго-восточный, Ю - южный, ЮЗ - юго-западный, З - западный, СЗ - северо-западный.
Видимость - горизонтальная дальность видимости в метрах или километрах. При видимости от 1 до 10 км при отсутствии осадков обычно наблюдается дымка, при ухудшении видимости до 1 км и менее - туман. В сухую погоду видимость может ухудшаться дымом, пылью или мглою.
Явления - указаны атмосферные явления, наблюдавшиеся в срок или в последний час перед сроком; фигурными скобками обозначены явления, наблюдавшиеся между сроками (за 1-3 часа до срока); квадратными скобками обозначены град или гололедные отложения с указанием их диаметра в мм.
Облачность - указаны через наклонную черту общая и нижняя облачность в баллах и высота нижней границы облаков в метрах; квадратными скобками обозначены формы облаков: Ci - перистые, Cs - перисто-слоистые, Cc - перисто-кучевые, Ac - высококучевые, As - высокослоистые, Sc - слоисто-кучевые, Ns - слоисто-дождевые, Cu - кучевые, Cb - кучево-дождевые. Подробнее классификацию облаков см. в Атласе облаков (PDF).
T - Температура воздуха - температура, измеренная на высоте 2 м над землей.
Td - Температура точки росы - температура, при понижении до которой содержащийся в воздухе водяной пар достигнет насыщения.
f - Относительная влажность воздуха - влажноcть воздуха, измеренная на высоте 2 м над землей.
Te - Эффективная температура - температура, которую ощущает одетый по сезону человек в тени. Характеристика душности погоды. При расчете учитывается влияние влажности воздуха и скорости ветра на теплоощущения человека.
Tes - Эффективная температура на солнце - температура, которую ощущает человек, с поправкой на солнечный нагрев. Характеристика знойности погоды. Зависит от высоты солнца над горизонтом, облачности и скорости ветра. Ночью, в пасмурную погоду, а также при ветре 12 м/с и более поправка равна нулю.
P - Атмосферное давление - приведенное к уровню моря атмосферное давление.
Po - Атмосферное давление - измеренное на уровне метеостанции атмосферное давление.
Tmin - Минимальная температура - минимум температуры воздуха на высоте 2 м над землей.
Tmax - Максимальная температура - максимум температуры воздуха на высоте 2 м над землей.
R - Количество осадков - Количество выпавших осадков за период времени, мм. При наведении курсора мыши на число - период времени, за который выпало указанное количество осадков.
R24 - Количество осадков - Количество выпавших осадков за 24 часа, мм.
S - Снежный покров - Высота снежного покрова, см. При наведении курсора мыши на число - состояние снежного покрова и степень покрытия местности в баллах.